Questo sito utilizza i cookie per fornire la migliore esperienza di navigazione possibile. Continuando a utilizzare questo sito senza modificare le impostazioni dei cookie o cliccando su "Accetto" permetti il loro utilizzo.

Preferenzecookies

Meteo

30/07/2021TempoProb.Precip.Temp.(°C)Umidità(%)Vento(km/h)Raffiche(km/h)
02:00 Sereno - 28 28 5 16
05:00 Sereno - 27 28 7 14
08:00 Sereno - 27 35 5 14
11:00 Sereno - 31 39 3 11
14:00 Sereno - 32 32 3 14
17:00 Sereno - 31 36 5 14
20:00 Sereno - 30 24 5 20
23:00 Sereno - 26 37 3 11
31/07/2021TempoProb.Precip.Temp.(°C)Umidità(%)Vento(km/h)Raffiche(km/h)
02:00 Sereno - 25 39 3 7
05:00 Sereno - 23 54 7 9
08:00 Sereno - 24 63 3 9
11:00 Sereno - 27 74 5 18
14:00 Sereno - 28 78 5 20
17:00 Sereno - 27 68 3 18
20:00 Sereno - 24 75 1 11
23:00 Sereno - 23 62 1 20
01/08/2021TempoProb.Precip.Temp.(°C)Umidità(%)Vento(km/h)Raffiche(km/h)
02:00 Sereno - 23 60 5 9
05:00 Sereno - 24 46 7 7
08:00 Sereno - 27 44 7 9
11:00 Coperto - 29 53 3 20
14:00 Sereno - 33 40 1 20
17:00 Sereno - 33 44 1 14
20:00 Sereno - 31 22 5 20
Note a riguardo

Aggiornamento pagina: 30/07/2021 00:39 UTC.

Logo Meteo Aeronautica Militare
A cura del Servizio Meteorologico dell'Aeronautica Militare

Leggi anche